Location: Demmingen
(48.6757°N, 10.4375°E)
Time: 21:20:40
(UTC+00:00)

Cosmos 841 Rocket - Pass Details

Date: 23 May 2024
Orbit: 744 x 770 km, 74.0° (Epoch: 14 June)

Event Time Altitude Azimuth Distance (km) Brightness Sun altitude
Rises 00:24:38 0° 338° (NNW) 3,232 7.6 -19.0°
Reaches altitude 10° 00:27:02 10° 341° (NNW) 2,306 6.7 -18.8°
Maximum altitude 00:32:15 69° 65° (ENE) 823 3.7 -18.6°
Enters shadow 00:36:23 16° 146° (SSE) 1,900 5.2 -18.3°
